星链-34108(STARLINK-34108)

导读 | 豆包AI

STARLINK-34108是美国SpaceX星链星座的一颗卫星,于2025年10月3日发射入轨。星链项目旨在构建全球卫星互联网星座,为全球偏远地区等提供高速低延迟的互联网接入服务。作为星链大规模组网中的一员,该卫星进一步扩充了星座规模,助力全球卫星互联网覆盖能力提升。

基本信息
目录编号:
65872
目录名称:
STARLINK-34108
国际标识:
2025-223U
轨道中心:
EARTH
卫星名称:
星链-34108
卫星全名:
星链-34108(STARLINK-34108)
卫星状态:
在轨 (已飞行162 天)
发射日期:
2025-10-03 UTC
国别 :
美国 (US)
星等 :
--
轨道信息
数据来源 国际轨道数据
星历时间: 2026-03-13T21:55:28+0800
19小时前
查看轨道信息
半长轴: 6853.311km
偏心率: 0.0001121
轨道倾角: 53.157°
近地点辐角 68.383°
升交点赤经 275.934°
平近点角 291.729°
近地点: 474.405km
远地点: 475.943km
周期: 94.104分钟
每日圈数: 15.302139
详细信息
固有亮度:
5
最大亮度:
2.5
卫星平台:
Starlink V1.0
覆盖范围:
全球
运营商:
太空探索技术公司
运营商所在国:
美国
制造商(研发单位):
太空探索技术公司
制造商所在国:
美国
使用方式:
暂无
卫星简介
Starlink 计划是 SpaceX 推出的全球卫星互联网项目,通过发射低轨道卫星,为全球尤其是偏远地区提供高速、低延迟的互联网服务。自 2019 年起,Starlink 已部署数千颗卫星,旨在缩小全球数字鸿沟,推动互联网普及。该项目还为军事、航空等行业提供通信支持,带来广泛经济效益。
2D轨道图
3D轨道图
轨道高度分析图
轨道倾角分析图
轨道综合分析图
查看轨道综合分析图